Regional Weather Roundup
Issued by NWS

Home | Current Version | Previous Version | Text Only | Print | Product List | Glossary On
Versions: 1 2 3 4 5 6 7 8 9 10 11 12 13 14 15 16 17 18 19 20 21 22 23 24 25 26 27 28 29 30 31 32 33 34 35 36 37 38 39 40 41 42 43 44 45 46 47 48 49 50
629
ASUS43 KDTX 200601
RWRMI
MICHIGAN HOURLY REGIONAL WEATHER ROUNDUP
NATIONAL WEATHER SERVICE DETROIT/PONTIAC MI
200 AM EDT SUN AUG 20 2017

NOTE: "FAIR" INDICATES FEW OR NO CLOUDS BELOW 12,000 FEET WITH NO
SIGNIFICANT WEATHER AND/OR OBSTRUCTION TO VISIBILITY.

MIZ047>049-052>055-059>063-066>070-074>076-081>083-200700-
SOUTHEAST LOWER MICHIGAN

CITY           SKY/WX    TMP DP  RH WIND       PRES   REMARKS
ADRIAN         CLEAR     59  58  96 CALM      30.04S
6HR MIN TEMP:  59; 6HR MAX TEMP:  76;

ALMA           CLEAR     58  57  97 CALM      30.02S FOG
ANN ARBOR      CLEAR     55  55 100 CALM      30.03S FOG
BAD AXE        CLEAR     61  59  92 CALM      30.00R
6HR MIN TEMP:  60; 6HR MAX TEMP:  71;

CARO           CLEAR     56  55  95 CALM      30.00S FOG
DETROIT CITY   CLEAR     65  59  81 CALM      30.03R
6HR MIN TEMP:  64; 6HR MAX TEMP:  77;

DETROIT        CLEAR     65  60  84 S3        30.03S
6HR MIN TEMP:  65; 6HR MAX TEMP:  77;

FLINT          CLEAR     59  57  93 CALM      30.02S
6HR MIN TEMP:  58; 6HR MAX TEMP:  73;

GROSSE ILE     CLEAR     64  61  89 CALM      30.02R
6HR MIN TEMP:  64; 6HR MAX TEMP:  75;

HILLSDALE      MOCLDY    57  55  94 CALM      30.04R
HOWELL         CLEAR     62  59  91 CALM      30.03S
6HR MIN TEMP:  60; 6HR MAX TEMP:  73;


CITY           SKY/WX    TMP DP  RH WIND       PRES   REMARKS
JACKSON        LGT RAIN  60  58  92 CALM      30.04R
6HR MIN TEMP:  59; 6HR MAX TEMP:  76; 6HR PCP: TRACE;

LAMBERTVILLE   CLEAR     59  58  95 CALM      30.02S
6HR MIN TEMP:  59; 6HR MAX TEMP:  74;

LANSING        CLEAR     61  57  87 CALM      30.03S
6HR MIN TEMP:  61; 6HR MAX TEMP:  75;

LAPEER         FAIR      59  58  96 CALM      30.03R
6HR MIN TEMP:  59; 6HR MAX TEMP:  74;

MASON          CLEAR     59  57  92 CALM      30.03S
MONROE         CLEAR     59  58  97 CALM      30.02S
6HR MIN TEMP:  59; 6HR MAX TEMP:  73;

MT. CLEMENS    CLEAR     67  59  74 SW5       30.00R
6HR MIN TEMP:  63; 6HR MAX TEMP:  74;

PONTIAC        CLEAR     64  60  87 CALM      30.03R
6HR MIN TEMP:  64; 6HR MAX TEMP:  74;

PORT HOPE        N/A     68  61  78 SW5       29.97R
6HR MIN TEMP:  66; 6HR MAX TEMP:  74;

PORT HURON     CLEAR     57  57 100 CALM      30.02R FOG
TRI CITIES     CLEAR     63  61  93 SW6       30.01R
6HR MIN TEMP:  63; 6HR MAX TEMP:  75;

MIDLAND        FAIR      59  59  97 CALM      30.00R
6HR MIN TEMP:  59; 6HR MAX TEMP:  75;

TROY           CLEAR     66  58  74 SW3       30.05R
SAGINAW HB     CLEAR     61  59  94 SW3       30.00S
$$
MIZ043>046-050>051-056>058-064>065-071>073-077>080-200700-
SOUTHWEST LOWER MICHIGAN

CITY           SKY/WX    TMP DP  RH WIND       PRES   REMARKS
BATTLE CREEK   CLEAR     59  57  93 CALM      30.04R
6HR MIN TEMP:  59; 6HR MAX TEMP:  75;

BENTON HARBOR  CLEAR     57  55  93 E3        30.02R
6HR MIN TEMP:  57; 6HR MAX TEMP:  73;

BIG RAPIDS     CLEAR     58  57  94 CALM      30.00S FOG
6HR MIN TEMP:  58; 6HR MAX TEMP:  71;

COLDWATER      CLEAR     58  58 100 CALM      30.04R
6HR MIN TEMP:  58; 6HR MAX TEMP:  76;

FREMONT        FAIR      59  59 100 CALM      30.00S FOG
6HR MIN TEMP:  59; 6HR MAX TEMP:  71;

HOLLAND        CLEAR     62  59  90 S3        30.02R
6HR MIN TEMP:  60; 6HR MAX TEMP:  71;

GRAND RAPIDS   CLEAR     61  59  93 SE3       30.02R
6HR MIN TEMP:  60; 6HR MAX TEMP:  74;

IONIA          FAIR      58  57  97 CALM      30.02R
6HR MIN TEMP:  57; 6HR MAX TEMP:  75;

KALAMAZOO      CLEAR     59  56  89 CALM      30.03S
6HR MIN TEMP:  58; 6HR MAX TEMP:  76;

LUDINGTON      CLEAR     68  62  81 SW7       29.97S
6HR MIN TEMP:  68; 6HR MAX TEMP:  70;

MARSHALL       CLEAR     56  55  98 CALM      30.03S
6HR MIN TEMP:  56; 6HR MAX TEMP:  75;

MOUNT PLEASANT CLEAR     64  59  85 SW3       29.99F
6HR MIN TEMP:  64; 6HR MAX TEMP:  76;

MUSKEGON         N/A     65  62  90 CALM      30.00S
6HR MIN TEMP:  65; 6HR MAX TEMP:  72;

SOUTH HAVEN    CLEAR     60  58  95 CALM      30.02S
$$
MIZ016>042-200700-
NORTHERN LOWER MICHIGAN

CITY           SKY/WX    TMP DP  RH WIND       PRES   REMARKS
ALPENA         CLOUDY    59  59 100 CALM      29.96R
6HR MIN TEMP:  58; 6HR MAX TEMP:  68;

BEAVER ISLAND  CLEAR     65  64  97 S3        29.93S
6HR MIN TEMP:  65; 6HR MAX TEMP:  68;

BELLAIRE       CLEAR     64  62  91 CALM      29.96S
6HR MIN TEMP:  64; 6HR MAX TEMP:  73;

CADILLAC       CLEAR     62  59  90 CALM      30.00S
CHARLEVOIX     CLEAR     65  65 100 S6        29.97S
FRANKFORT      CLEAR     70  68  94 SW5       29.96S
GAYLORD        CLEAR     62  59  90 SW5       29.98S
6HR MIN TEMP:  62; 6HR MAX TEMP:  70; 6HR PCP: TRACE;

GRAYLING       MOCLDY    64  59  85 W5        29.99S
6HR MIN TEMP:  61; 6HR MAX TEMP:  73;

HARBOR SPRINGS CLEAR     64  63  95 CALM      29.95R
HOUGHTON LAKE  CLEAR     65  60  84 SW8       30.00S
6HR MIN TEMP:  64; 6HR MAX TEMP:  74;

MANISTEE       CLEAR     59  59 100 E3        29.97S
OSCODA         CLOUDY    65  62  88 SW5       29.96R
6HR MIN TEMP:  60; 6HR MAX TEMP:  70;

PELLSTON       CLEAR     59  57  93 CALM      29.95R
6HR MIN TEMP:  58; 6HR MAX TEMP:  70;

ROGERS CITY    CLEAR     64  60  87 SW7       29.95R
TRAVERSE CITY  CLEAR     67  61  81 VRB3      29.94S
6HR MIN TEMP:  67; 6HR MAX TEMP:  76;

$$
MIZ007>008-015-200700-
EASTERN UPPER MICHIGAN

CITY           SKY/WX    TMP DP  RH WIND       PRES   REMARKS
KINROSS        CLEAR     60  59  96 CALM      29.94R FOG
6HR MIN TEMP:  60; 6HR MAX TEMP:  68;

MACKINAC ISLAN CLEAR     64  64 100 W7        29.93S
6HR MIN TEMP:  63; 6HR MAX TEMP:  67;

NEWBERRY       CLEAR     60  59  97 SW6       29.93S
6HR MIN TEMP:  59; 6HR MAX TEMP:  70;

S. S. MARIE    FOG       59  57  93 CALM      29.92R VSB 3/4
6HR MIN TEMP:  59; 6HR MAX TEMP:  69;

MUNISING         N/A     62  62 100 S7        29.91R
6HR MIN TEMP:  62; 6HR MAX TEMP:  70;

$$
MIZ004>006-011>014-085-200700-
CENTRAL UPPER MICHIGAN

CITY           SKY/WX    TMP DP  RH WIND       PRES   REMARKS
MANISTIQUE     HAZE      56  50  81 CALM      29.92S VSB<1/4
6HR MIN TEMP:  55; 6HR MAX TEMP:  67;

ESCANABA       CLEAR     60  60 100 W3        29.93R FOG
6HR MIN TEMP:  57; 6HR MAX TEMP:  75;

MENOMINEE      CLEAR     64  60  87 CALM      29.95R
6HR MIN TEMP:  63; 6HR MAX TEMP:  77;

SAWYER-GWINN   CLEAR     56  56  97 CALM      29.94S
6HR MIN TEMP:  56; 6HR MAX TEMP:  72;

$$
MIZ001>003-009>011-084-200700-
WESTERN UPPER MICHIGAN

CITY           SKY/WX    TMP DP  RH WIND       PRES   REMARKS
IRON MOUNTAIN  CLEAR     60  56  86 CALM      29.94R
6HR MIN TEMP:  59; 6HR MAX TEMP:  77;

HOUGHTON         N/A     67  57  70 W8        29.89R
COPPER HARBOR    N/A     65  55  70 W7        29.86S
6HR MIN TEMP:  62; 6HR MAX TEMP:  69;

IRONWOOD       CLOUDY    65  59  81 SW8       29.93S
6HR MIN TEMP:  61; 6HR MAX TEMP:  76;

$$

ABBREVIATIONS USED IN REMARKS
   TC - TEMPERATURE IN CELSIUS
  WCI - WIND CHILL INDEX
   HX - HEAT INDEX
  VSB - VISIBILITY





USA.gov is the U.S. government's official web portal to all federal, state and local government web resources and services.